Location: Devargunta
(16.7631°N, 80.9077°E)
Time: 11:56:08
(UTC+00:00)

Atlas Centaur 2 - Pass Details

Date: 19 January 2021
Orbit: 459 x 1309 km, 30.4° (Epoch: 07 March)

Event Time Altitude Azimuth Distance (km) Brightness Sun altitude
Exits shadow 22:01:45 29° 62° (ENE) 2,060 4.4 -43.9°
Drops below altitude 10° 22:05:26 10° 63° (ENE) 3,240 5.6 -43.1°
Sets 22:08:31 0° 63° (ENE) 4,259 6.4 -42.3°
